| time (UTC) | temp C | wind direction | speed KPH | gust KPH | rain 1hr cm | rain 24hr cm | rain mn cm | humidity % | barometer mb |
| 20260505152939 | 25 | 180 | 12.9 | 17.7 | 0.00 | 0.00 | 0.00 | 73 | 1005.5 |
| 20260505152438 | 25 | 276 | 4.8 | 12.9 | 0.00 | 0.00 | 0.00 | 76 | 1005.1 |
| 20260505151937 | 24 | 145 | 8.0 | 22.5 | 0.00 | 0.00 | 0.00 | 75 | 1005.2 |
| 20260505151433 | 24 | 207 | 9.7 | 17.7 | 0.00 | 0.00 | 0.00 | 76 | 1005.2 |
| 20260505150931 | 23 | 193 | 4.8 | 17.7 | 0.00 | 0.00 | 0.00 | 77 | 1005.5 |
| 20260505150427 | 23 | 192 | 3.2 | 22.5 | 0.00 | 0.00 | 0.00 | 78 | 1005.4 |
| 20260505140357 | 22 | 183 | 8.0 | 17.7 | 0.00 | 0.00 | 0.00 | 81 | 1005.3 |
| 20260505124811 | 21 | 212 | 14.5 | 25.7 | 0.00 | 0.00 | 0.00 | 85 | 1004.7 |
| 20260505124308 | 21 | 160 | 8.0 | 17.7 | 0.00 | 0.00 | 0.00 | 85 | 1004.6 |
| 20260505123804 | 21 | 210 | 8.0 | 17.7 | 0.00 | 0.00 | 0.00 | 84 | 1004.8 |
| 20260505123301 | 21 | 190 | 11.3 | 16.1 | 0.00 | 0.00 | 0.00 | 85 | 1004.7 |
| 20260505122757 | 21 | 152 | 9.7 | 22.5 | 0.00 | 0.00 | 0.00 | 85 | 1004.4 |
| 20260505122255 | 21 | 177 | 9.7 | 16.1 | 0.00 | 0.00 | 0.00 | 85 | 1004.5 |
| 20260505121751 | 21 | 190 | 11.3 | 22.5 | 0.00 | 0.00 | 0.00 | 85 | 1004.3 |
| 20260505121247 | 21 | 205 | 17.7 | 19.3 | 0.00 | 0.00 | 0.00 | 85 | 1004.4 |
| 20260505120744 | 21 | 206 | 6.4 | 27.4 | 0.00 | 0.00 | 0.00 | 85 | 1004.3 |
| 20260505120240 | 21 | 212 | 6.4 | 14.5 | 0.00 | 0.00 | 0.00 | 85 | 1004.3 |
| 20260505115739 | 21 | 207 | 9.7 | 16.1 | 0.00 | 0.00 | 0.00 | 85 | 1004.4 |
| 20260505115237 | 21 | 187 | 11.3 | 20.9 | 0.00 | 0.00 | 0.00 | 85 | 1004.2 |
| 20260505114734 | 21 | 214 | 8.0 | 17.7 | 0.00 | 0.00 | 0.00 | 85 | 1004.2 |
| 20260505114230 | 21 | 216 | 8.0 | 22.5 | 0.00 | 0.00 | 0.00 | 85 | 1004.2 |
| 20260505113726 | 21 | 174 | 8.0 | 14.5 | 0.00 | 0.00 | 0.00 | 85 | 1004.2 |
| 20260505113223 | 21 | 222 | 4.8 | 12.9 | 0.00 | 0.00 | 0.00 | 85 | 1004.2 |
| 20260505112719 | 21 | 216 | 11.3 | 20.9 | 0.00 | 0.00 | 0.00 | 85 | 1004.0 |
| 20260505112218 | 21 | 131 | 4.8 | 14.5 | 0.00 | 0.00 | 0.00 | 85 | 1004.3 |
| 20260505111717 | 21 | 218 | 11.3 | 17.7 | 0.00 | 0.00 | 0.00 | 85 | 1004.4 |
| 20260505111213 | 21 | 209 | 4.8 | 17.7 | 0.00 | 0.00 | 0.00 | 84 | 1004.2 |
| 20260505110709 | 21 | 194 | 8.0 | 20.9 | 0.00 | 0.00 | 0.00 | 84 | 1004.1 |
| 20260505110207 | 21 | 183 | 11.3 | 16.1 | 0.00 | 0.00 | 0.00 | 84 | 1004.1 |
| 20260505102142 | 21 | 165 | 14.5 | 19.3 | 0.00 | 0.00 | 0.00 | 83 | 1004.3 |
| 20260505101641 | 21 | 186 | 9.7 | 14.5 | 0.00 | 0.00 | 0.00 | 83 | 1004.3 |
| 20260505101137 | 21 | 206 | 6.4 | 17.7 | 0.00 | 0.00 | 0.00 | 83 | 1004.2 |
| 20260505100633 | 21 | 149 | 3.2 | 27.4 | 0.00 | 0.00 | 0.00 | 83 | 1004.4 |
| 20260505100130 | 21 | 213 | 6.4 | 17.7 | 0.00 | 0.00 | 0.00 | 83 | 1004.1 |
| 20260505095626 | 21 | 232 | 6.4 | 22.5 | 0.00 | 0.00 | 0.00 | 83 | 1004.5 |
| 20260505095123 | 21 | 129 | 3.2 | 17.7 | 0.00 | 0.00 | 0.00 | 83 | 1004.2 |
| 20260505094620 | 21 | 207 | 24.1 | 25.7 | 0.00 | 0.00 | 0.00 | 83 | 1004.4 |
| 20260505094116 | 21 | 187 | 8.0 | 22.5 | 0.00 | 0.00 | 0.00 | 83 | 1004.1 |
| 20260505093612 | 21 | 163 | 11.3 | 17.7 | 0.00 | 0.00 | 0.00 | 83 | 1004.0 |
| 20260505093110 | 21 | 170 | 6.4 | 17.7 | 0.00 | 0.00 | 0.00 | 83 | 1004.3 |
| 20260505092607 | 21 | 125 | 4.8 | 19.3 | 0.00 | 0.00 | 0.00 | 83 | 1004.4 |
| 20260505092106 | 21 | 195 | 9.7 | 17.7 | 0.00 | 0.00 | 0.00 | 83 | 1004.3 |
| 20260505091602 | 21 | 187 | 6.4 | 20.9 | 0.00 | 0.00 | 0.00 | 82 | 1004.6 |
| 20260505091100 | 21 | 194 | 11.3 | 19.3 | 0.00 | 0.00 | 0.00 | 82 | 1004.6 |
| 20260505090558 | 21 | 124 | 4.8 | 20.9 | 0.00 | 0.00 | 0.00 | 82 | 1004.6 |
| 20260505090055 | 21 | 183 | 11.3 | 25.7 | 0.00 | 0.00 | 0.00 | 82 | 1004.6 |
| 20260505085553 | 21 | 202 | 8.0 | 17.7 | 0.00 | 0.00 | 0.00 | 82 | 1004.6 |
| 20260505085051 | 21 | 210 | 6.4 | 17.7 | 0.00 | 0.00 | 0.00 | 81 | 1004.6 |
| 20260505084549 | 21 | 174 | 19.3 | 24.1 | 0.00 | 0.00 | 0.00 | 81 | 1004.7 |
| 20260505084047 | 21 | 117 | 1.6 | 14.5 | 0.00 | 0.00 | 0.00 | 81 | 1004.6 |
| 20260505083543 | 21 | 238 | 8.0 | 17.7 | 0.00 | 0.00 | 0.00 | 81 | 1004.7 |
| 20260505083040 | 21 | 224 | 4.8 | 16.1 | 0.00 | 0.00 | 0.00 | 80 | 1004.5 |
| 20260505082536 | 21 | 167 | 8.0 | 16.1 | 0.00 | 0.00 | 0.00 | 80 | 1004.7 |
| 20260505082033 | 21 | 201 | 12.9 | 17.7 | 0.00 | 0.00 | 0.00 | 80 | 1004.8 |
| 20260505081529 | 21 | 305 | 3.2 | 12.9 | 0.00 | 0.00 | 0.00 | 79 | 1004.8 |
| 20260505081026 | 21 | 161 | 6.4 | 20.9 | 0.00 | 0.00 | 0.00 | 79 | 1004.8 |
| 20260505080522 | 21 | 161 | 16.1 | 17.7 | 0.00 | 0.00 | 0.00 | 79 | 1004.6 |
| 20260505080019 | 21 | 201 | 4.8 | 12.9 | 0.00 | 0.00 | 0.00 | 78 | 1004.7 |
| 20260505075515 | 22 | 298 | 3.2 | 17.7 | 0.00 | 0.00 | 0.00 | 78 | 1004.7 |
| 20260505075012 | 22 | 202 | 8.0 | 19.3 | 0.00 | 0.00 | 0.00 | 78 | 1004.8 |
| 20260505074510 | 22 | 204 | 9.7 | 17.7 | 0.00 | 0.00 | 0.00 | 77 | 1005.1 |
| 20260505074007 | 22 | 190 | 14.5 | 22.5 | 0.00 | 0.00 | 0.00 | 77 | 1005.1 |
| 20260505073504 | 22 | 128 | 4.8 | 17.7 | 0.00 | 0.00 | 0.00 | 76 | 1005.1 |
| 20260505073002 | 22 | 193 | 11.3 | 24.1 | 0.00 | 0.00 | 0.00 | 76 | 1005.2 |
| 20260505072457 | 22 | 153 | 6.4 | 17.7 | 0.00 | 0.00 | 0.00 | 75 | 1005.4 |
| 20260505071953 | 22 | 200 | 12.9 | 24.1 | 0.00 | 0.00 | 0.00 | 75 | 1005.5 |
| 20260505071449 | 22 | 190 | 14.5 | 24.1 | 0.00 | 0.00 | 0.00 | 75 | 1005.5 |
| 20260505070948 | 22 | 220 | 6.4 | 17.7 | 0.00 | 0.00 | 0.00 | 74 | 1005.3 |
| 20260505070444 | 22 | 207 | 9.7 | 17.7 | 0.00 | 0.00 | 0.00 | 74 | 1005.7 |
| 20260505065940 | 22 | 155 | 6.4 | 20.9 | 0.00 | 0.00 | 0.00 | 73 | 1005.6 |
| 20260505065437 | 22 | 207 | 8.0 | 17.7 | 0.00 | 0.00 | 0.00 | 73 | 1005.7 |
| 20260505064933 | 22 | 236 | 11.3 | 16.1 | 0.00 | 0.00 | 0.00 | 72 | 1005.6 |
| 20260505064430 | 22 | 153 | 4.8 | 20.9 | 0.00 | 0.00 | 0.00 | 72 | 1005.8 |
| 20260505063929 | 22 | 200 | 16.1 | 20.9 | 0.00 | 0.00 | 0.00 | 72 | 1005.9 |
| 20260505063425 | 22 | 185 | 8.0 | 25.7 | 0.00 | 0.00 | 0.00 | 71 | 1006.0 |
| 20260505062921 | 22 | 207 | 8.0 | 14.5 | 0.00 | 0.00 | 0.00 | 71 | 1005.8 |
| 20260505062419 | 23 | 180 | 14.5 | 29.0 | 0.00 | 0.00 | 0.00 | 71 | 1005.8 |
| 20260505061915 | 23 | 193 | 17.7 | 25.7 | 0.00 | 0.00 | 0.00 | 71 | 1006.1 |
| 20260505061414 | 23 | 206 | 9.7 | 16.1 | 0.00 | 0.00 | 0.00 | 71 | 1005.8 |
| 20260505060911 | 23 | 92 | 3.2 | 19.3 | 0.00 | 0.00 | 0.00 | 71 | 1005.9 |
| 20260505060408 | 22 | 192 | 9.7 | 12.9 | 0.00 | 0.00 | 0.00 | 71 | 1006.0 |
| 20260505055904 | 22 | 197 | 9.7 | 16.1 | 0.00 | 0.00 | 0.00 | 71 | 1006.1 |
| 20260505055400 | 22 | 200 | 12.9 | 14.5 | 0.00 | 0.00 | 0.00 | 71 | 1006.0 |
| 20260505054857 | 23 | 114 | 6.4 | 24.1 | 0.00 | 0.00 | 0.00 | 71 | 1005.9 |
| 20260505054354 | 23 | 178 | 19.3 | 22.5 | 0.00 | 0.00 | 0.00 | 71 | 1006.1 |
| 20260505053852 | 23 | 173 | 11.3 | 20.9 | 0.00 | 0.00 | 0.00 | 70 | 1006.3 |
| 20260505053349 | 23 | 84 | 4.8 | 22.5 | 0.00 | 0.00 | 0.00 | 70 | 1006.1 |
| 20260505052846 | 23 | 206 | 19.3 | 20.9 | 0.00 | 0.00 | 0.00 | 70 | 1006.0 |
| 20260505052343 | 23 | 197 | 19.3 | 27.4 | 0.00 | 0.00 | 0.00 | 70 | 1006.2 |
| 20260505051840 | 23 | 113 | 3.2 | 25.7 | 0.00 | 0.00 | 0.00 | 71 | 1006.2 |
| 20260505051337 | 23 | 198 | 11.3 | 11.3 | 0.00 | 0.00 | 0.00 | 71 | 1006.4 |
| 20260505050835 | 22 | 226 | 6.4 | 19.3 | 0.00 | 0.00 | 0.00 | 71 | 1006.4 |
| 20260505050334 | 22 | 195 | 6.4 | 14.5 | 0.00 | 0.00 | 0.00 | 71 | 1006.6 |
| 20260505041300 | 23 | 190 | 16.1 | 20.9 | 0.00 | 0.00 | 0.00 | 70 | 1006.8 |
| 20260505040758 | 23 | 145 | 8.0 | 17.7 | 0.00 | 0.00 | 0.00 | 70 | 1006.7 |
| 20260505040255 | 23 | 231 | 3.2 | 20.9 | 0.00 | 0.00 | 0.00 | 70 | 1006.7 |
| 20260505035752 | 23 | 135 | 4.8 | 20.9 | 0.00 | 0.00 | 0.00 | 69 | 1006.8 |
| 20260505035247 | 23 | 179 | 9.7 | 25.7 | 0.00 | 0.00 | 0.00 | 69 | 1006.7 |
| 20260505034745 | 23 | 176 | 6.4 | 20.9 | 0.00 | 0.00 | 0.00 | 69 | 1006.6 |
| 20260505034242 | 23 | 144 | 4.8 | 17.7 | 0.00 | 0.00 | 0.00 | 69 | 1006.8 |
| 20260505033738 | 23 | 169 | 9.7 | 33.8 | 0.00 | 0.00 | 0.00 | 69 | 1006.6 |
| 20260505033236 | 23 | 157 | 9.7 | 20.9 | 0.00 | 0.00 | 0.00 | 69 | 1006.4 |
| 20260505032734 | 23 | 152 | 12.9 | 19.3 | 0.00 | 0.00 | 0.00 | 69 | 1006.4 |
| 20260505032229 | 23 | 159 | 8.0 | 19.3 | 0.00 | 0.00 | 0.00 | 69 | 1006.7 |
| 20260505031727 | 23 | 180 | 12.9 | 19.3 | 0.00 | 0.00 | 0.00 | 68 | 1006.9 |
| 20260505031223 | 23 | 168 | 8.0 | 20.9 | 0.00 | 0.00 | 0.00 | 68 | 1007.0 |
| 20260505030720 | 23 | 169 | 6.4 | 20.9 | 0.00 | 0.00 | 0.00 | 68 | 1006.9 |
| 20260505030216 | 23 | 144 | 3.2 | 16.1 | 0.00 | 0.00 | 0.00 | 68 | 1006.9 |
| 20260505025712 | 23 | 177 | 3.2 | 17.7 | 0.00 | 0.00 | 0.00 | 68 | 1006.7 |
| 20260505025211 | 23 | 215 | 12.9 | 19.3 | 0.00 | 0.00 | 0.00 | 68 | 1006.7 |
| 20260505024709 | 23 | 152 | 17.7 | 19.3 | 0.00 | 0.00 | 0.00 | 68 | 1006.9 |
| 20260505024205 | 23 | 168 | 8.0 | 12.9 | 0.00 | 0.00 | 0.00 | 68 | 1006.9 |
| 20260505023703 | 23 | 119 | 4.8 | 24.1 | 0.00 | 0.00 | 0.00 | 68 | 1006.9 |
| 20260505023155 | 23 | 196 | 12.9 | 17.7 | 0.00 | 0.00 | 0.00 | 68 | 1006.8 |
| 20260505022652 | 23 | 180 | 8.0 | 14.5 | 0.00 | 0.00 | 0.00 | 68 | 1007.1 |
| 20260505022149 | 23 | 181 | 8.0 | 14.5 | 0.00 | 0.00 | 0.00 | 68 | 1007.1 |
| 20260505021645 | 23 | 203 | 9.7 | 12.9 | 0.00 | 0.00 | 0.00 | 67 | 1006.9 |
| 20260505021142 | 23 | 150 | 8.0 | 14.5 | 0.00 | 0.00 | 0.00 | 67 | 1007.0 |
| 20260505020638 | 23 | 155 | 8.0 | 17.7 | 0.00 | 0.00 | 0.00 | 67 | 1007.0 |
| 20260505020134 | 23 | 230 | 3.2 | 12.9 | 0.00 | 0.00 | 0.00 | 66 | 1006.9 |
| 20260505015632 | 23 | 186 | 11.3 | 22.5 | 0.00 | 0.00 | 0.00 | 66 | 1006.9 |
| 20260505015128 | 23 | 182 | 11.3 | 14.5 | 0.00 | 0.00 | 0.00 | 65 | 1006.8 |
| 20260505014625 | 23 | 135 | 6.4 | 16.1 | 0.00 | 0.00 | 0.00 | 65 | 1007.0 |
| 20260505014122 | 23 | 193 | 11.3 | 20.9 | 0.00 | 0.00 | 0.00 | 65 | 1006.8 |
| 20260505013619 | 23 | 184 | 20.9 | 20.9 | 0.00 | 0.00 | 0.00 | 65 | 1006.7 |
| 20260505013116 | 23 | 154 | 4.8 | 16.1 | 0.00 | 0.00 | 0.00 | 65 | 1006.7 |
| 20260505012614 | 23 | 189 | 11.3 | 17.7 | 0.00 | 0.00 | 0.00 | 65 | 1006.8 |
| 20260505012105 | 23 | 220 | 9.7 | 16.1 | 0.00 | 0.00 | 0.00 | 64 | 1006.9 |
| 20260505011601 | 23 | 176 | 8.0 | 24.1 | 0.00 | 0.00 | 0.00 | 64 | 1006.6 |
| 20260505011058 | 24 | 180 | 8.0 | 16.1 | 0.00 | 0.00 | 0.00 | 64 | 1006.8 |
| 20260505010553 | 24 | 174 | 16.1 | 20.9 | 0.00 | 0.00 | 0.00 | 64 | 1006.6 |
| 20260505010050 | 24 | 174 | 17.7 | 20.9 | 0.00 | 0.00 | 0.00 | 64 | 1006.9 |
| 20260505005546 | 24 | 127 | 8.0 | 14.5 | 0.00 | 0.00 | 0.00 | 63 | 1006.7 |
| 20260505005044 | 24 | 200 | 9.7 | 12.9 | 0.00 | 0.00 | 0.00 | 63 | 1006.6 |
| 20260505004541 | 24 | 156 | 3.2 | 14.5 | 0.00 | 0.00 | 0.00 | 63 | 1006.8 |
| 20260505004037 | 24 | 197 | 12.9 | 17.7 | 0.00 | 0.00 | 0.00 | 62 | 1006.8 |
| 20260505003535 | 25 | 179 | 4.8 | 20.9 | 0.00 | 0.00 | 0.00 | 62 | 1006.7 |
| 20260505003032 | 25 | 195 | 17.7 | 27.4 | 0.00 | 0.00 | 0.00 | 61 | 1006.7 |
| 20260505002532 | 25 | 181 | 11.3 | 29.0 | 0.00 | 0.00 | 0.00 | 61 | 1006.7 |
| 20260505002031 | 25 | 172 | 9.7 | 12.9 | 0.00 | 0.00 | 0.00 | 61 | 1006.9 |
| 20260505001528 | 25 | 75 | 4.8 | 19.3 | 0.00 | 0.00 | 0.00 | 61 | 1006.9 |
| 20260505001025 | 25 | 192 | 9.7 | 25.7 | 0.00 | 0.00 | 0.00 | 61 | 1006.9 |
| 20260505000523 | 25 | 182 | 11.3 | 17.7 | 0.00 | 0.00 | 0.00 | 60 | 1007.0 |
| 20260505000020 | 25 | 184 | 9.7 | 25.7 | 0.00 | 0.00 | 0.00 | 59 | 1006.9 |
| 20260504235517 | 26 | 199 | 12.9 | 17.7 | 0.00 | 0.00 | 0.00 | 59 | 1006.9 |
| 20260504235014 | 26 | 180 | 9.7 | 17.7 | 0.00 | 0.00 | 0.00 | 59 | 1007.0 |
| 20260504234511 | 26 | 161 | 3.2 | 19.3 | 0.00 | 0.00 | 0.00 | 59 | 1006.9 |
| 20260504234008 | 26 | 188 | 11.3 | 16.1 | 0.00 | 0.00 | 0.00 | 59 | 1007.1 |
| 20260504233503 | 25 | 181 | 12.9 | 22.5 | 0.00 | 0.00 | 0.00 | 59 | 1007.1 |
| 20260504233000 | 25 | 185 | 11.3 | 27.4 | 0.00 | 0.00 | 0.00 | 59 | 1007.1 |
| 20260504232457 | 25 | 235 | 6.4 | 20.9 | 0.00 | 0.00 | 0.00 | 58 | 1007.2 |
| 20260504231955 | 26 | 166 | 17.7 | 29.0 | 0.00 | 0.00 | 0.00 | 58 | 1007.1 |
| 20260504231450 | 26 | 166 | 19.3 | 24.1 | 0.00 | 0.00 | 0.00 | 58 | 1007.1 |
| 20260504230946 | 26 | 80 | 4.8 | 17.7 | 0.00 | 0.00 | 0.00 | 58 | 1007.3 |
| 20260504230443 | 26 | 209 | 17.7 | 20.9 | 0.00 | 0.00 | 0.00 | 58 | 1007.4 |
| 20260504225942 | 26 | 192 | 6.4 | 17.7 | 0.00 | 0.00 | 0.00 | 57 | 1007.5 |
| 20260504225438 | 27 | 200 | 20.9 | 24.1 | 0.00 | 0.00 | 0.00 | 55 | 1007.2 |
| 20260504224936 | 26 | 183 | 6.4 | 30.6 | 0.00 | 0.00 | 0.00 | 56 | 1007.3 |
| 20260504224432 | 27 | 203 | 20.9 | 32.2 | 0.00 | 0.00 | 0.00 | 55 | 1007.5 |
| 20260504223930 | 26 | 198 | 16.1 | 30.6 | 0.00 | 0.00 | 0.00 | 55 | 1007.5 |
| 20260504223425 | 26 | 186 | 14.5 | 17.7 | 0.00 | 0.00 | 0.00 | 56 | 1007.6 |
| 20260504222921 | 26 | 170 | 17.7 | 27.4 | 0.00 | 0.00 | 0.00 | 55 | 1007.7 |
| 20260504222419 | 27 | 163 | 14.5 | 29.0 | 0.00 | 0.00 | 0.00 | 55 | 1007.5 |
| 20260504221917 | 27 | 181 | 14.5 | 24.1 | 0.00 | 0.00 | 0.00 | 55 | 1007.5 |
| 20260504221413 | 27 | 184 | 8.0 | 20.9 | 0.00 | 0.00 | 0.00 | 54 | 1007.5 |
| 20260504220910 | 27 | 180 | 12.9 | 25.7 | 0.00 | 0.00 | 0.00 | 55 | 1007.5 |
| 20260504220407 | 27 | 166 | 8.0 | 27.4 | 0.00 | 0.00 | 0.00 | 55 | 1007.7 |
| 20260504215904 | 27 | 186 | 4.8 | 24.1 | 0.00 | 0.00 | 0.00 | 54 | 1007.6 |
| 20260504215400 | 27 | 187 | 12.9 | 20.9 | 0.00 | 0.00 | 0.00 | 54 | 1007.7 |
| 20260504214857 | 27 | 166 | 17.7 | 29.0 | 0.00 | 0.00 | 0.00 | 55 | 1007.8 |
| 20260504214354 | 27 | 177 | 9.7 | 14.5 | 0.00 | 0.00 | 0.00 | 55 | 1008.1 |
| 20260504213850 | 27 | 193 | 9.7 | 16.1 | 0.00 | 0.00 | 0.00 | 55 | 1007.9 |
| 20260504213346 | 26 | 158 | 6.4 | 27.4 | 0.00 | 0.00 | 0.00 | 55 | 1008.1 |
| 20260504212844 | 26 | 165 | 16.1 | 32.2 | 0.00 | 0.00 | 0.00 | 54 | 1008.4 |
| 20260504212339 | 27 | 193 | 12.9 | 27.4 | 0.00 | 0.00 | 0.00 | 54 | 1008.5 |
| 20260504211838 | 27 | 187 | 8.0 | 19.3 | 0.00 | 0.00 | 0.00 | 55 | 1008.3 |
| 20260504211333 | 26 | 148 | 6.4 | 17.7 | 0.00 | 0.00 | 0.00 | 57 | 1008.4 |
| 20260504210831 | 26 | 173 | 19.3 | 25.7 | 0.00 | 0.00 | 0.00 | 55 | 1008.7 |
| 20260504210328 | 26 | 198 | 9.7 | 25.7 | 0.00 | 0.00 | 0.00 | 55 | 1008.7 |
| 20260504205825 | 26 | 201 | 9.7 | 22.5 | 0.00 | 0.00 | 0.00 | 54 | 1008.7 |
| 20260504205323 | 26 | 221 | 8.0 | 17.7 | 0.00 | 0.00 | 0.00 | 54 | 1008.9 |
| 20260504204821 | 26 | 186 | 12.9 | 22.5 | 0.00 | 0.00 | 0.00 | 54 | 1009.0 |
| 20260504204319 | 26 | 191 | 12.9 | 17.7 | 0.00 | 0.00 | 0.00 | 55 | 1009.1 |
| 20260504203818 | 26 | 181 | 17.7 | 22.5 | 0.00 | 0.00 | 0.00 | 54 | 1009.2 |
| 20260504203315 | 26 | 195 | 12.9 | 24.1 | 0.00 | 0.00 | 0.00 | 54 | 1009.2 |
| 20260504202811 | 27 | 176 | 11.3 | 20.9 | 0.00 | 0.00 | 0.00 | 54 | 1009.5 |
| 20260504202308 | 26 | 195 | 20.9 | 27.4 | 0.00 | 0.00 | 0.00 | 53 | 1009.5 |
| 20260504201804 | 27 | 194 | 9.7 | 20.9 | 0.00 | 0.00 | 0.00 | 53 | 1009.5 |
| 20260504201302 | 26 | 228 | 9.7 | 20.9 | 0.00 | 0.00 | 0.00 | 54 | 1009.5 |
| 20260504200759 | 26 | 162 | 9.7 | 32.2 | 0.00 | 0.00 | 0.00 | 53 | 1009.8 |
| 20260504200255 | 26 | 175 | 11.3 | 24.1 | 0.00 | 0.00 | 0.00 | 52 | 1009.9 |
| 20260504195751 | 26 | 177 | 11.3 | 24.1 | 0.00 | 0.00 | 0.00 | 53 | 1010.0 |
| 20260504195247 | 26 | 191 | 17.7 | 24.1 | 0.00 | 0.00 | 0.00 | 54 | 1010.0 |
| 20260504194745 | 26 | 186 | 9.7 | 22.5 | 0.00 | 0.00 | 0.00 | 52 | 1010.0 |
| 20260504194241 | 26 | 161 | 6.4 | 20.9 | 0.00 | 0.00 | 0.00 | 54 | 1010.2 |
| 20260504193737 | 26 | 227 | 4.8 | 17.7 | 0.00 | 0.00 | 0.00 | 54 | 1010.2 |
| 20260504193235 | 26 | 123 | 6.4 | 19.3 | 0.00 | 0.00 | 0.00 | 54 | 1010.2 |
| 20260504192733 | 26 | 166 | 24.1 | 32.2 | 0.00 | 0.00 | 0.00 | 53 | 1010.3 |
| 20260504192231 | 26 | 170 | 11.3 | 30.6 | 0.00 | 0.00 | 0.00 | 53 | 1010.2 |
| 20260504191729 | 25 | 144 | 4.8 | 25.7 | 0.00 | 0.00 | 0.00 | 56 | 1010.3 |
| 20260504191226 | 25 | 184 | 9.7 | 20.9 | 0.00 | 0.00 | 0.00 | 54 | 1010.6 |
| 20260504190721 | 26 | 190 | 4.8 | 29.0 | 0.00 | 0.00 | 0.00 | 53 | 1010.7 |
| 20260504190218 | 26 | 198 | 14.5 | 20.9 | 0.00 | 0.00 | 0.00 | 54 | 1010.8 |
| 20260504185714 | 25 | 175 | 12.9 | 24.1 | 0.00 | 0.00 | 0.00 | 54 | 1010.7 |
| 20260504185211 | 25 | 183 | 16.1 | 30.6 | 0.00 | 0.00 | 0.00 | 53 | 1011.0 |
| 20260504184707 | 25 | 211 | 6.4 | 20.9 | 0.00 | 0.00 | 0.00 | 54 | 1011.2 |
| 20260504184203 | 25 | 203 | 17.7 | 32.2 | 0.00 | 0.00 | 0.00 | 54 | 1011.1 |
| 20260504183700 | 25 | 180 | 29.0 | 32.2 | 0.00 | 0.00 | 0.00 | 53 | 1010.9 |
| 20260504183156 | 25 | 188 | 3.2 | 22.5 | 0.00 | 0.00 | 0.00 | 56 | 1011.3 |
| 20260504182654 | 25 | 193 | 12.9 | 25.7 | 0.00 | 0.00 | 0.00 | 54 | 1011.3 |
| 20260504182151 | 25 | 153 | 19.3 | 27.4 | 0.00 | 0.00 | 0.00 | 54 | 1011.0 |
| 20260504181649 | 25 | 210 | 11.3 | 20.9 | 0.00 | 0.00 | 0.00 | 55 | 1011.3 |
| 20260504181147 | 25 | 173 | 9.7 | 19.3 | 0.00 | 0.00 | 0.00 | 55 | 1011.5 |
| 20260504180645 | 24 | 148 | 8.0 | 19.3 | 0.00 | 0.00 | 0.00 | 57 | 1011.6 |
| 20260504180143 | 24 | 43 | 6.4 | 27.4 | 0.00 | 0.00 | 0.00 | 56 | 1011.8 |
| 20260504175640 | 25 | 233 | 11.3 | 19.3 | 0.00 | 0.00 | 0.00 | 55 | 1011.9 |
| 20260504175137 | 25 | 174 | 14.5 | 27.4 | 0.00 | 0.00 | 0.00 | 54 | 1011.8 |
| 20260504174635 | 25 | 202 | 12.9 | 20.9 | 0.00 | 0.00 | 0.00 | 54 | 1011.8 |
| 20260504174131 | 24 | 184 | 8.0 | 20.9 | 0.00 | 0.00 | 0.00 | 56 | 1011.9 |
| 20260504173629 | 24 | 183 | 9.7 | 19.3 | 0.00 | 0.00 | 0.00 | 56 | 1012.0 |
| 20260504173126 | 24 | 215 | 8.0 | 27.4 | 0.00 | 0.00 | 0.00 | 55 | 1012.2 |
| 20260504172622 | 24 | 157 | 9.7 | 27.4 | 0.00 | 0.00 | 0.00 | 55 | 1012.1 |
| 20260504172119 | 24 | 208 | 19.3 | 25.7 | 0.00 | 0.00 | 0.00 | 55 | 1012.2 |
| 20260504171615 | 24 | 181 | 9.7 | 14.5 | 0.00 | 0.00 | 0.00 | 57 | 1012.1 |
| 20260504171113 | 23 | 197 | 8.0 | 24.1 | 0.00 | 0.00 | 0.00 | 57 | 1012.4 |
| 20260504170608 | 23 | 201 | 16.1 | 17.7 | 0.00 | 0.00 | 0.00 | 57 | 1012.2 |
| 20260504170106 | 23 | 183 | 14.5 | 29.0 | 0.00 | 0.00 | 0.00 | 56 | 1012.7 |